Regional Weather Roundup
Issued by NWS

Home | Current Version | Previous Version | Text Only | Print | Product List | Glossary On
Versions: 1 2 3 4 5 6 7 8 9 10 11 12 13 14 15 16 17 18 19 20 21 22 23 24 25 26 27 28 29 30 31 32 33 34 35 36 37 38 39 40 41 42 43 44 45 46 47 48 49 50
000
ASUS43 KBIS 051701
RWRND

NORTH DAKOTA REGIONAL WEATHER ROUNDUP
NATIONAL WEATHER SERVICE BISMARCK ND
1200 PM CDT TUE MAY 05 2015

NOTE: "FAIR" INDICATES FEW OR NO CLOUDS BELOW 12,000 FEET WITH NO
SIGNIFICANT WEATHER AND/OR OBSTRUCTIONS TO VISIBILITY.


NDZ001>003-009>011-017-051800-
NORTHWEST NORTH DAKOTA

CITY           SKY/WX    TMP DP  RH WIND       PRES   REMARKS
WILLISTON      SUNNY     72  35  25 S16G23    29.88F
MINOT          MOSUNNY   70  33  25 S22G32    29.97F
$$

NDZ018>021-031>035-040>046-051800-
SOUTHWEST NORTH DAKOTA

CITY           SKY/WX    TMP DP  RH WIND       PRES   REMARKS
BISMARCK       CLOUDY    68  33  27 S23G32    30.02F
DICKINSON      SUNNY     68  41  37 S24G32    29.92S
GARRISON         N/A     70  37  29 S23G32    29.98F
HETTINGER ARPT SUNNY     65  43  44 SE23G30   29.96S
$$

NDZ004>008-012>016-024-026-027-054-051800-
NORTHEAST NORTH DAKOTA

CITY           SKY/WX    TMP DP  RH WIND       PRES   REMARKS
GRAND FORKS    MOSUNNY   71  24  17 S18G26    30.11F
DEVILS LAKE    PTSUNNY   70  32  24 S22G30    30.07F
$$

NDZ022-023-025-028>030-036>039-047>053-051800-
SOUTHEAST NORTH DAKOTA

CITY           SKY/WX    TMP DP  RH WIND       PRES   REMARKS
FARGO          SUNNY     72  22  15 SE12G26   30.12F
JAMESTOWN      SUNNY     71  28  20 S20G32    30.07F
$$



USA.gov is the U.S. government's official web portal to all federal, state and local government web resources and services.